Home   Weather   Hilo   Past weeks

Flag for USA Past Weather in Hilo, Hawaii, USA — Yesterday and Last 2 Weeks

Now
71 °F

Mostly cloudy.


Feels Like: 67 °F
Forecast: 67 / 78 °F
Wind: 5 mph from Southwest

Location: Hilo International Airport

Current Time: Jan 23, 2017 at 9:33:23 pm

Latest Report: Jan 23, 2017 at 8:53 pm


Visibility: 10 mi

Pressure: 30.16 "Hg

Humidity: 93%

Dew Point: 69 °F

Location of HiloLocation

Past Weather in Hilo — Graph

°F

Hilo Temperature Yesterday

Maximum temperature yesterday: 74 °F (at 1:53 pm)
Minimum temperature yesterday: 68 °F (at 7:53 pm)
Average temperature yesterday: 71 °F

High & Low Weather Summary for the Past Weeks

 TemperatureHumidityPressure
High81 °F (Jan 12, 11:53 am)97% (Jan 23, 1:53 am)30.26 "Hg (Jan 23, 1:53 am)
Low61 °F (Jan 18, 6:53 am)50% (Jan 10, 9:53 am)29.98 "Hg (Jan 13, 2:53 pm)
Average72 °F77%30.09 "Hg
* Reported Jan 8 7:53 pm — Jan 23 7:53 pm, Hilo, Weather by CustomWeather, © 2017

Note: Actual official high and low records may vary slightly from our data, if they occured in-between our weather recording intervals... More about our weather records

Advertising

Hilo Weather History for the Previous 24 Hours

Scroll right to see more
 ConditionsComfort  
Time TempWeatherWind HumidityBarometerVisibility
7:53 pm
Mon, Jan 23
72 °FLight rain. Partly cloudy.3 mph87%30.16 "Hg10 mi
7:34 pm72 °FPartly cloudy.7 mph88%30.16 "Hg10 mi
6:53 pm72 °FMostly cloudy.6 mph84%30.14 "Hg10 mi
5:53 pm73 °FLight rain. Broken clouds.10 mph84%30.13 "Hg6 mi
5:05 pm73 °FLight rain. Partly sunny.6 mph83%30.13 "Hg10 mi
4:28 pm73 °FBroken clouds.9 mph83%30.12 "Hg10 mi
3:53 pm75 °FBroken clouds.8 mph76%30.11 "Hg10 mi
2:53 pm73 °FLight rain. Cloudy.13 mph84%30.11 "Hg7 mi
1:53 pm75 °FLight rain. Broken clouds.13 mph82%30.12 "Hg9 mi
12:53 pm74 °FCloudy.8 mph85%30.15 "Hg8 mi
12:01 pm73 °FCloudy.3 mph89%30.19 "Hg10 mi
11:21 am72 °FHeavy rain. Fog.3 mph94%30.21 "Hg2 mi
10:11 am72 °FLight rain. Fog.6 mph88%30.22 "Hg2 mi
10:03 am72 °FLight rain. Fog.3 mph88%30.21 "Hg2 mi
8:53 am69 °FLight rain. Fog.7 mph93%30.20 "Hg5 mi
7:53 am67 °FLight rain. Fog.6 mph93%30.20 "Hg2 mi
7:42 am66 °FLight rain. Fog.7 mph94%30.20 "Hg2 mi
7:11 am66 °FLight rain. Fog.3 mph94%30.19 "Hg2 mi
6:53 am67 °FLight rain. Fog.8 mph93%30.18 "Hg5 mi
6:30 am66 °FLight rain. Mostly cloudy.7 mph94%30.17 "Hg10 mi
5:53 am67 °FMostly cloudy.6 mph93%30.16 "Hg10 mi
5:25 am66 °FRain. Fog.No wind94%30.17 "Hg2 mi
4:53 am67 °FMostly cloudy.6 mph90%30.16 "Hg10 mi
3:53 am66 °FLight rain. Fog.8 mph93%30.16 "Hg5 mi
2:53 am66 °FLight rain. Mostly cloudy.7 mph93%30.17 "Hg7 mi
2:37 am67 °FLight rain. Fog.6 mph93%30.18 "Hg5 mi
1:53 am67 °FRain. Fog.7 mph97%30.19 "Hg3 mi
1:19 am68 °FLight rain. Fog.8 mph94%30.21 "Hg3 mi
12:53 am68 °FRain. Fog.6 mph90%30.22 "Hg3 mi
12:11 am68 °FLight rain. Overcast.8 mph88%30.23 "Hg9 mi
11:57 pm
Sun, Jan 22
68 °FRain. Fog.8 mph90%30.23 "Hg2 mi
11:04 pm70 °FPartly cloudy.6 mph83%30.23 "Hg10 mi
10:01 pm70 °FPassing clouds.9 mph83%30.23 "Hg10 mi
Weather by CustomWeather, © 2017

See weather overviewHow to use our weather pages